Time,TemperatureF,DewpointF,PressureIn,WindDirection,WindDirectionDegrees,WindSpeedMPH,WindSpeedGustMPH,Humidity,HourlyPrecipIn,Conditions,Clouds,dailyrainin,SoftwareType,DateUTC
2013-05-01 00:03:00,70.0,53.6,29.23,South,169,6.0,11.0,56,0.00,,,0.00,meteohub,2013-05-01 05:03:00,
2013-05-01 00:08:00,70.0,53.6,29.23,South,189,2.0,11.0,56,0.00,,,0.00,meteohub,2013-05-01 05:08:00,
2013-05-01 00:13:00,70.0,53.6,29.23,South,180,5.0,11.0,56,0.00,,,0.00,meteohub,2013-05-01 05:13:00,
2013-05-01 00:18:00,70.0,53.6,29.23,South,178,0.0,11.0,56,0.00,,,0.00,meteohub,2013-05-01 05:18:00,
2013-05-01 00:23:00,70.0,53.6,29.24,South,184,1.0,11.0,56,0.00,,,0.00,meteohub,2013-05-01 05:23:00,
2013-05-01 00:28:00,69.8,53.4,29.24,SSE,160,3.0,11.0,56,0.00,,,0.00,meteohub,2013-05-01 05:28:00,
2013-05-01 00:33:00,69.6,53.2,29.24,South,189,4.0,11.0,56,0.00,,,0.00,meteohub,2013-05-01 05:33:00,
2013-05-01 00:38:00,69.6,53.2,29.24,SSW,195,1.0,10.0,56,0.00,,,0.00,meteohub,2013-05-01 05:38:00,
2013-05-01 00:43:00,69.4,53.1,29.24,SSW,195,0.0,9.0,56,0.00,,,0.00,meteohub,2013-05-01 05:43:00,
2013-05-01 00:48:00,69.4,53.6,29.24,SSW,206,5.0,9.0,57,0.00,,,0.00,meteohub,2013-05-01 05:48:00,
2013-05-01 00:53:00,69.3,53.4,29.24,South,190,4.0,9.0,57,0.00,,,0.00,meteohub,2013-05-01 05:53:00,
2013-05-01 00:58:00,69.1,53.2,29.24,South,190,0.0,8.0,57,0.00,,,0.00,meteohub,2013-05-01 05:58:00,
2013-05-01 01:03:00,68.9,53.1,29.24,South,188,6.0,6.0,57,0.00,,,0.00,meteohub,2013-05-01 06:03:00,
2013-05-01 01:08:00,68.7,52.9,29.24,SSE,161,4.0,10.0,57,0.00,,,0.00,meteohub,2013-05-01 06:08:00,
2013-05-01 01:13:00,68.5,53.2,29.24,South,169,1.0,10.0,58,0.00,,,0.00,meteohub,2013-05-01 06:13:00,
2013-05-01 01:18:00,68.5,53.2,29.24,SW,232,4.0,10.0,58,0.00,,,0.00,meteohub,2013-05-01 06:18:00,
2013-05-01 01:23:00,68.4,53.1,29.24,SSW,200,0.0,8.0,58,0.00,,,0.00,meteohub,2013-05-01 06:23:00,
2013-05-01 01:28:00,68.4,53.1,29.24,SSW,204,4.0,10.0,58,0.00,,,0.00,meteohub,2013-05-01 06:28:00,
2013-05-01 01:33:00,68.2,52.9,29.24,South,186,3.0,10.0,58,0.00,,,0.00,meteohub,2013-05-01 06:33:00,
2013-05-01 01:39:00,68.2,53.2,29.24,SSW,196,5.0,10.0,59,0.00,,,0.00,meteohub,2013-05-01 06:39:00,
2013-05-01 01:44:00,67.8,52.9,29.24,South,187,0.0,11.0,59,0.00,,,0.00,meteohub,2013-05-01 06:44:00,
2013-05-01 01:49:00,67.6,52.9,29.24,SSW,193,0.0,11.0,59,0.00,,,0.00,meteohub,2013-05-01 06:49:00,
2013-05-01 01:54:00,67.5,53.1,29.24,SSW,196,2.0,11.0,60,0.00,,,0.00,meteohub,2013-05-01 06:54:00,
2013-05-01 01:59:00,67.5,53.1,29.25,SSW,192,5.0,9.0,60,0.00,,,0.00,meteohub,2013-05-01 06:59:00,
2013-05-01 02:04:00,67.3,52.9,29.25,South,186,7.0,11.0,60,0.00,,,0.00,meteohub,2013-05-01 07:04:00,
2013-05-01 02:09:00,67.3,53.4,29.25,SSW,197,6.0,13.0,61,0.00,,,0.00,meteohub,2013-05-01 07:09:00,
2013-05-01 02:14:00,67.1,53.2,29.25,South,190,3.0,13.0,61,0.00,,,0.00,meteohub,2013-05-01 07:14:00,
2013-05-01 02:19:00,66.9,53.1,29.25,South,190,2.0,11.0,61,0.00,,,0.00,meteohub,2013-05-01 07:19:00,
2013-05-01 02:24:00,66.9,53.1,29.26,SSW,192,0.0,11.0,61,0.00,,,0.00,meteohub,2013-05-01 07:24:00,
2013-05-01 02:29:00,66.7,53.2,29.26,South,178,6.0,9.0,62,0.00,,,0.00,meteohub,2013-05-01 07:29:00,
2013-05-01 02:34:00,66.6,53.1,29.26,South,178,3.0,9.0,62,0.00,,,0.00,meteohub,2013-05-01 07:34:00,
2013-05-01 02:39:00,66.4,53.4,29.26,South,182,1.0,8.0,63,0.00,,,0.00,meteohub,2013-05-01 07:39:00,
2013-05-01 02:44:00,66.0,53.1,29.26,South,187,2.0,7.0,63,0.00,,,0.00,meteohub,2013-05-01 07:44:00,
2013-05-01 02:49:00,65.8,52.9,29.26,South,187,1.0,6.0,63,0.00,,,0.00,meteohub,2013-05-01 07:49:00,
2013-05-01 02:54:00,65.7,53.2,29.26,SSW,192,2.0,7.0,64,0.00,,,0.00,meteohub,2013-05-01 07:54:00,
2013-05-01 02:59:00,65.5,53.1,29.26,SSW,203,0.0,7.0,64,0.00,,,0.00,meteohub,2013-05-01 07:59:00,
2013-05-01 03:04:00,65.5,53.1,29.26,SSW,194,4.0,8.0,64,0.00,,,0.00,meteohub,2013-05-01 08:04:00,
2013-05-01 03:09:00,65.3,53.2,29.26,South,190,8.0,8.0,65,0.00,,,0.00,meteohub,2013-05-01 08:09:00,
2013-05-01 03:14:00,65.3,53.2,29.26,South,188,1.0,7.0,65,0.00,,,0.00,meteohub,2013-05-01 08:14:00,
2013-05-01 03:19:00,65.1,53.1,29.26,South,187,5.0,9.0,65,0.00,,,0.00,meteohub,2013-05-01 08:19:00,
2013-05-01 03:24:00,65.1,53.1,29.26,South,182,5.0,9.0,65,0.00,,,0.00,meteohub,2013-05-01 08:24:00,
2013-05-01 03:29:00,64.9,52.9,29.26,South,188,0.0,10.0,65,0.00,,,0.00,meteohub,2013-05-01 08:29:00,
2013-05-01 03:34:00,64.9,53.2,29.26,South,188,1.0,10.0,66,0.00,,,0.00,meteohub,2013-05-01 08:34:00,
2013-05-01 03:39:00,64.8,53.1,29.27,SSW,199,0.0,10.0,66,0.00,,,0.00,meteohub,2013-05-01 08:39:00,
2013-05-01 03:44:00,64.8,53.1,29.27,South,186,0.0,9.0,66,0.00,,,0.00,meteohub,2013-05-01 08:44:00,
2013-05-01 03:49:00,64.8,53.1,29.27,SSW,194,4.0,9.0,66,0.00,,,0.00,meteohub,2013-05-01 08:49:00,
2013-05-01 03:54:00,64.8,53.6,29.27,South,188,6.0,9.0,67,0.00,,,0.00,meteohub,2013-05-01 08:54:00,
2013-05-01 03:59:00,64.8,53.6,29.27,South,188,1.0,9.0,67,0.00,,,0.00,meteohub,2013-05-01 08:59:00,
2013-05-01 04:04:00,64.8,53.6,29.27,South,170,3.0,10.0,67,0.00,,,0.00,meteohub,2013-05-01 09:04:00,
2013-05-01 04:10:00,64.8,53.6,29.27,South,190,10.0,10.0,67,0.00,,,0.00,meteohub,2013-05-01 09:10:00,
2013-05-01 04:15:00,64.9,53.8,29.27,South,188,1.0,10.0,67,0.00,,,0.00,meteohub,2013-05-01 09:15:00,
2013-05-01 04:20:00,64.9,53.8,29.28,South,182,3.0,11.0,67,0.00,,,0.00,meteohub,2013-05-01 09:20:00,
2013-05-01 04:25:00,64.9,53.8,29.28,South,180,5.0,11.0,67,0.00,,,0.00,meteohub,2013-05-01 09:25:00,
2013-05-01 04:30:00,64.9,53.8,29.28,South,186,0.0,10.0,67,0.00,,,0.00,meteohub,2013-05-01 09:30:00,
2013-05-01 04:35:00,64.8,53.6,29.28,South,190,2.0,6.0,67,0.00,,,0.00,meteohub,2013-05-01 09:35:00,
2013-05-01 04:40:00,64.8,53.6,29.28,South,177,3.0,7.0,67,0.00,,,0.00,meteohub,2013-05-01 09:40:00,
2013-05-01 04:45:00,64.8,54.0,29.28,South,181,3.0,7.0,68,0.00,,,0.00,meteohub,2013-05-01 09:45:00,
2013-05-01 04:50:00,64.6,53.8,29.28,SSW,194,3.0,7.0,68,0.00,,,0.00,meteohub,2013-05-01 09:50:00,
2013-05-01 04:55:00,64.6,53.8,29.28,South,170,5.0,6.0,68,0.00,,,0.00,meteohub,2013-05-01 09:55:00,
2013-05-01 05:00:00,64.6,53.8,29.29,South,185,6.0,7.0,68,0.00,,,0.00,meteohub,2013-05-01 10:00:00,
2013-05-01 05:05:00,64.4,53.6,29.29,SSW,202,2.0,7.0,68,0.00,,,0.00,meteohub,2013-05-01 10:05:00,
2013-05-01 05:10:00,64.6,53.8,29.29,South,188,0.0,7.0,68,0.00,,,0.00,meteohub,2013-05-01 10:10:00,
2013-05-01 05:15:00,64.4,53.6,29.29,South,169,2.0,7.0,68,0.00,,,0.00,meteohub,2013-05-01 10:15:00,
2013-05-01 05:20:00,64.2,53.8,29.29,South,190,1.0,7.0,69,0.00,,,0.00,meteohub,2013-05-01 10:20:00,
2013-05-01 05:25:00,64.2,53.8,29.29,South,186,0.0,7.0,69,0.00,,,0.00,meteohub,2013-05-01 10:25:00,
2013-05-01 05:30:00,64.0,53.6,29.30,South,184,3.0,6.0,69,0.00,,,0.00,meteohub,2013-05-01 10:30:00,
2013-05-01 05:35:00,64.0,53.6,29.30,SSW,193,0.0,5.0,69,0.00,,,0.00,meteohub,2013-05-01 10:35:00,
2013-05-01 05:40:00,63.9,53.4,29.30,South,180,0.0,5.0,69,0.00,,,0.00,meteohub,2013-05-01 10:40:00,
2013-05-01 05:45:00,63.7,53.8,29.30,South,190,0.0,6.0,70,0.00,,,0.00,meteohub,2013-05-01 10:45:00,
2013-05-01 05:50:00,63.7,53.8,29.31,South,191,0.0,6.0,70,0.00,,,0.00,meteohub,2013-05-01 10:50:00,
2013-05-01 05:55:00,63.5,53.6,29.31,SSW,193,0.0,6.0,70,0.00,,,0.00,meteohub,2013-05-01 10:55:00,
2013-05-01 06:00:00,63.3,53.4,29.31,South,189,5.0,6.0,70,0.00,,,0.00,meteohub,2013-05-01 11:00:00,
2013-05-01 06:05:00,63.3,53.4,29.31,South,190,2.0,6.0,70,0.00,,,0.00,meteohub,2013-05-01 11:05:00,
2013-05-01 06:10:00,63.3,53.4,29.31,SSW,198,2.0,6.0,70,0.00,,,0.00,meteohub,2013-05-01 11:10:00,
2013-05-01 06:15:00,63.1,53.2,29.31,SSW,192,1.0,5.0,70,0.00,,,0.00,meteohub,2013-05-01 11:15:00,
2013-05-01 06:20:00,63.1,53.2,29.31,South,190,2.0,6.0,70,0.00,,,0.00,meteohub,2013-05-01 11:20:00,
2013-05-01 06:25:00,63.1,53.6,29.31,SSW,200,4.0,7.0,71,0.00,,,0.00,meteohub,2013-05-01 11:25:00,
2013-05-01 06:30:00,63.1,53.6,29.32,SSW,202,2.0,7.0,71,0.00,,,0.00,meteohub,2013-05-01 11:30:00,
2013-05-01 06:35:00,63.1,53.6,29.32,SSW,193,5.0,7.0,71,0.00,,,0.00,meteohub,2013-05-01 11:35:00,
2013-05-01 06:40:00,63.1,53.6,29.32,South,178,3.0,7.0,71,0.00,,,0.00,meteohub,2013-05-01 11:40:00,
2013-05-01 06:45:00,63.3,53.4,29.32,SSW,195,0.0,6.0,70,0.00,,,0.00,meteohub,2013-05-01 11:45:00,
2013-05-01 06:50:00,63.3,53.4,29.32,South,190,2.0,6.0,70,0.00,,,0.00,meteohub,2013-05-01 11:50:00,
2013-05-01 06:55:00,63.5,53.6,29.32,South,185,0.0,6.0,70,0.00,,,0.00,meteohub,2013-05-01 11:55:00,
2013-05-01 07:00:00,63.5,53.6,29.33,South,189,2.0,6.0,70,0.00,,,0.00,meteohub,2013-05-01 12:00:00,
2013-05-01 07:05:00,63.7,53.8,29.33,South,185,0.0,10.0,70,0.00,,,0.00,meteohub,2013-05-01 12:05:00,
2013-05-01 07:10:00,63.9,54.0,29.33,SSW,192,1.0,10.0,70,0.00,,,0.00,meteohub,2013-05-01 12:10:00,
2013-05-01 07:15:00,64.0,54.1,29.33,SSW,193,7.0,10.0,70,0.00,,,0.00,meteohub,2013-05-01 12:15:00,
2013-05-01 07:20:00,64.2,54.3,29.33,South,180,4.0,9.0,70,0.00,,,0.00,meteohub,2013-05-01 12:20:00,
2013-05-01 07:25:00,64.6,54.1,29.33,South,189,0.0,9.0,69,0.00,,,0.00,meteohub,2013-05-01 12:25:00,
2013-05-01 07:30:00,64.9,54.5,29.33,South,186,5.0,9.0,69,0.00,,,0.00,meteohub,2013-05-01 12:30:00,
2013-05-01 07:35:00,65.1,54.3,29.34,SSW,192,3.0,7.0,68,0.00,,,0.00,meteohub,2013-05-01 12:35:00,
2013-05-01 07:41:00,65.7,54.3,29.34,South,190,4.0,11.0,67,0.00,,,0.00,meteohub,2013-05-01 12:41:00,
2013-05-01 07:46:00,66.2,54.9,29.34,SSW,193,5.0,11.0,67,0.00,,,0.00,meteohub,2013-05-01 12:46:00,
2013-05-01 07:51:00,66.7,54.7,29.34,South,185,3.0,11.0,65,0.00,,,0.00,meteohub,2013-05-01 12:51:00,
2013-05-01 07:56:00,67.5,55.2,29.34,South,190,0.0,13.0,65,0.00,,,0.00,meteohub,2013-05-01 12:56:00,
2013-05-01 08:01:00,67.8,55.2,29.34,South,172,6.0,13.0,64,0.00,,,0.00,meteohub,2013-05-01 13:01:00,
2013-05-01 08:06:00,68.4,55.2,29.34,SSW,200,3.0,13.0,63,0.00,,,0.00,meteohub,2013-05-01 13:06:00,
2013-05-01 08:11:00,68.7,55.2,29.34,South,189,0.0,11.0,62,0.00,,,0.00,meteohub,2013-05-01 13:11:00,
2013-05-01 08:16:00,69.3,55.8,29.34,South,180,3.0,11.0,62,0.00,,,0.00,meteohub,2013-05-01 13:16:00,
2013-05-01 08:21:00,69.6,55.9,29.34,South,183,8.0,11.0,62,0.00,,,0.00,meteohub,2013-05-01 13:21:00,
2013-05-01 08:26:00,70.0,55.9,29.34,South,172,6.0,13.0,61,0.00,,,0.00,meteohub,2013-05-01 13:26:00,
2013-05-01 08:31:00,70.3,56.3,29.35,South,186,10.0,13.0,61,0.00,,,0.00,meteohub,2013-05-01 13:31:00,
2013-05-01 08:36:00,70.5,55.9,29.35,SSE,166,5.0,13.0,60,0.00,,,0.00,meteohub,2013-05-01 13:36:00,
2013-05-01 08:41:00,71.1,55.9,29.35,South,182,8.0,13.0,59,0.00,,,0.00,meteohub,2013-05-01 13:41:00,
2013-05-01 08:46:00,71.2,56.1,29.35,South,180,5.0,12.0,59,0.00,,,0.00,meteohub,2013-05-01 13:46:00,
2013-05-01 08:51:00,71.8,56.7,29.35,SSW,201,6.0,14.0,59,0.00,,,0.00,meteohub,2013-05-01 13:51:00,
2013-05-01 08:56:00,72.1,56.5,29.35,SSE,150,0.0,14.0,58,0.00,,,0.00,meteohub,2013-05-01 13:56:00,
2013-05-01 09:01:00,72.7,56.5,29.35,South,189,9.0,12.0,57,0.00,,,0.00,meteohub,2013-05-01 14:01:00,
2013-05-01 09:06:00,73.2,56.7,29.35,South,187,5.0,13.0,56,0.00,,,0.00,meteohub,2013-05-01 14:06:00,
2013-05-01 09:11:00,73.6,56.8,29.34,South,182,2.0,13.0,56,0.00,,,0.00,meteohub,2013-05-01 14:11:00,
2013-05-01 09:16:00,73.9,56.8,29.35,SSW,198,5.0,13.0,55,0.00,,,0.00,meteohub,2013-05-01 14:16:00,
2013-05-01 09:22:00,74.5,57.2,29.35,SSW,205,5.0,12.0,55,0.00,,,0.00,meteohub,2013-05-01 14:22:00,
2013-05-01 09:27:00,74.8,57.0,29.35,SE,142,0.0,12.0,54,0.00,,,0.00,meteohub,2013-05-01 14:27:00,
2013-05-01 09:32:00,75.4,57.0,29.35,SW,226,5.0,11.0,53,0.00,,,0.00,meteohub,2013-05-01 14:32:00,
2013-05-01 09:37:00,75.9,56.5,29.35,SSW,209,0.0,11.0,51,0.00,,,0.00,meteohub,2013-05-01 14:37:00,
2013-05-01 09:42:00,76.5,55.9,29.35,South,187,9.0,11.0,49,0.00,,,0.00,meteohub,2013-05-01 14:42:00,
2013-05-01 09:47:00,76.5,55.9,29.35,South,172,10.0,13.0,49,0.00,,,0.00,meteohub,2013-05-01 14:47:00,
2013-05-01 09:52:00,76.8,56.3,29.35,SSE,155,9.0,13.0,49,0.00,,,0.00,meteohub,2013-05-01 14:52:00,
2013-05-01 09:57:00,77.2,55.9,29.35,South,184,4.0,13.0,48,0.00,,,0.00,meteohub,2013-05-01 14:57:00,
2013-05-01 10:02:00,77.2,55.9,29.35,South,171,9.0,13.0,48,0.00,,,0.00,meteohub,2013-05-01 15:02:00,
2013-05-01 10:07:00,77.4,55.6,29.35,SSW,193,11.0,14.0,47,0.00,,,0.00,meteohub,2013-05-01 15:07:00,
2013-05-01 10:12:00,77.5,55.8,29.35,SSW,194,3.0,14.0,47,0.00,,,0.00,meteohub,2013-05-01 15:12:00,
2013-05-01 10:17:00,77.9,55.4,29.35,SE,134,6.0,14.0,46,0.00,,,0.00,meteohub,2013-05-01 15:17:00,
2013-05-01 10:22:00,78.4,55.4,29.35,SE,146,1.0,14.0,45,0.00,,,0.00,meteohub,2013-05-01 15:22:00,
2013-05-01 10:27:00,78.6,54.3,29.35,SSW,200,13.0,14.0,43,0.00,,,0.00,meteohub,2013-05-01 15:27:00,
2013-05-01 10:32:00,79.0,55.2,29.35,South,180,3.0,16.0,44,0.00,,,0.00,meteohub,2013-05-01 15:32:00,
2013-05-01 10:37:00,79.3,56.1,29.36,SSW,206,0.0,16.0,45,0.00,,,0.00,meteohub,2013-05-01 15:37:00,
2013-05-01 10:42:00,79.7,55.9,29.35,South,172,5.0,16.0,44,0.00,,,0.00,meteohub,2013-05-01 15:42:00,
2013-05-01 10:47:00,79.5,55.8,29.35,South,172,0.0,15.0,44,0.00,,,0.00,meteohub,2013-05-01 15:47:00,
2013-05-01 10:52:00,79.5,55.0,29.36,SW,218,5.0,13.0,43,0.00,,,0.00,meteohub,2013-05-01 15:52:00,
2013-05-01 10:57:00,80.1,55.6,29.35,South,186,1.0,13.0,43,0.00,,,0.00,meteohub,2013-05-01 15:57:00,
2013-05-01 11:02:00,80.4,54.0,29.36,SSE,160,8.0,13.0,40,0.00,,,0.00,meteohub,2013-05-01 16:02:00,
2013-05-01 11:07:00,80.2,53.8,29.36,SE,136,6.0,14.0,40,0.00,,,0.00,meteohub,2013-05-01 16:07:00,
2013-05-01 11:12:00,80.2,53.1,29.35,SSW,193,5.0,14.0,39,0.00,,,0.00,meteohub,2013-05-01 16:12:00,
2013-05-01 11:17:00,80.4,54.0,29.35,South,182,4.0,13.0,40,0.00,,,0.00,meteohub,2013-05-01 16:17:00,
2013-05-01 11:22:00,80.8,53.6,29.35,South,185,0.0,13.0,39,0.00,,,0.00,meteohub,2013-05-01 16:22:00,
2013-05-01 11:27:00,81.0,53.6,29.35,South,183,2.0,13.0,39,0.00,,,0.00,meteohub,2013-05-01 16:27:00,
2013-05-01 11:32:00,81.0,52.9,29.35,South,182,12.0,13.0,38,0.00,,,0.00,meteohub,2013-05-01 16:32:00,
2013-05-01 11:37:00,81.1,52.3,29.35,SSE,159,5.0,14.0,37,0.00,,,0.00,meteohub,2013-05-01 16:37:00,
2013-05-01 11:42:00,81.1,53.1,29.35,SSW,204,7.0,14.0,38,0.00,,,0.00,meteohub,2013-05-01 16:42:00,
2013-05-01 11:47:00,81.7,52.9,29.35,SSE,161,5.0,14.0,37,0.00,,,0.00,meteohub,2013-05-01 16:47:00,
2013-05-01 11:52:00,81.1,52.3,29.35,SW,235,7.0,13.0,37,0.00,,,0.00,meteohub,2013-05-01 16:52:00,
2013-05-01 11:57:00,81.3,52.5,29.35,SSE,151,5.0,11.0,37,0.00,,,0.00,meteohub,2013-05-01 16:57:00,
2013-05-01 12:02:00,81.5,52.7,29.35,South,184,12.0,12.0,37,0.00,,,0.00,meteohub,2013-05-01 17:02:00,
2013-05-01 12:07:00,81.7,52.9,29.35,SE,128,9.0,13.0,37,0.00,,,0.00,meteohub,2013-05-01 17:07:00,
2013-05-01 12:12:00,81.7,52.2,29.35,SSW,192,7.0,13.0,36,0.00,,,0.00,meteohub,2013-05-01 17:12:00,
2013-05-01 12:17:00,81.3,52.5,29.35,SW,218,7.0,14.0,37,0.00,,,0.00,meteohub,2013-05-01 17:17:00,
2013-05-01 12:22:00,81.9,52.3,29.35,SSE,161,10.0,14.0,36,0.00,,,0.00,meteohub,2013-05-01 17:22:00,
2013-05-01 12:27:00,81.5,51.3,29.35,SSW,208,0.0,14.0,35,0.00,,,0.00,meteohub,2013-05-01 17:27:00,
2013-05-01 12:32:00,81.7,50.5,29.35,SW,229,4.0,14.0,34,0.00,,,0.00,meteohub,2013-05-01 17:32:00,
2013-05-01 12:37:00,81.7,50.5,29.35,SE,133,4.0,14.0,34,0.00,,,0.00,meteohub,2013-05-01 17:37:00,
2013-05-01 12:42:00,81.5,52.0,29.36,SSE,167,6.0,14.0,36,0.00,,,0.00,meteohub,2013-05-01 17:42:00,
2013-05-01 12:47:00,81.9,52.3,29.35,SSW,194,4.0,14.0,36,0.00,,,0.00,meteohub,2013-05-01 17:47:00,
2013-05-01 12:52:00,82.2,52.5,29.35,South,182,0.0,16.0,36,0.00,,,0.00,meteohub,2013-05-01 17:52:00,
2013-05-01 12:57:00,82.4,51.3,29.35,South,173,6.0,16.0,34,0.00,,,0.00,meteohub,2013-05-01 17:57:00,
2013-05-01 13:02:00,82.2,52.5,29.35,South,184,0.0,13.0,36,0.00,,,0.00,meteohub,2013-05-01 18:02:00,
2013-05-01 13:07:00,82.2,52.5,29.35,SSE,147,0.0,13.0,36,0.00,,,0.00,meteohub,2013-05-01 18:07:00,
2013-05-01 13:12:00,82.8,53.1,29.36,South,169,12.0,12.0,36,0.00,,,0.00,meteohub,2013-05-01 18:12:00,
2013-05-01 13:17:00,82.8,50.7,29.36,SW,217,1.0,15.0,33,0.00,,,0.00,meteohub,2013-05-01 18:17:00,
2013-05-01 13:22:00,82.6,52.2,29.36,South,169,10.0,15.0,35,0.00,,,0.00,meteohub,2013-05-01 18:22:00,
2013-05-01 13:27:00,82.4,53.6,29.36,SSW,196,9.0,15.0,37,0.00,,,0.00,meteohub,2013-05-01 18:27:00,
2013-05-01 13:32:00,82.0,53.2,29.36,SSE,150,3.0,13.0,37,0.00,,,0.00,meteohub,2013-05-01 18:32:00,
2013-05-01 13:37:00,82.8,54.5,29.36,South,184,0.0,13.0,38,0.00,,,0.00,meteohub,2013-05-01 18:37:00,
2013-05-01 13:42:00,82.9,53.2,29.36,South,180,4.0,12.0,36,0.00,,,0.00,meteohub,2013-05-01 18:42:00,
2013-05-01 13:47:00,82.2,53.4,29.36,SE,137,7.0,12.0,37,0.00,,,0.00,meteohub,2013-05-01 18:47:00,
2013-05-01 13:52:00,82.2,53.4,29.36,South,170,3.0,15.0,37,0.00,,,0.00,meteohub,2013-05-01 18:52:00,
2013-05-01 13:58:00,82.0,53.2,29.36,SE,145,1.0,15.0,37,0.00,,,0.00,meteohub,2013-05-01 18:58:00,
2013-05-01 14:03:00,81.9,52.3,29.36,SSW,205,5.0,15.0,36,0.00,,,0.00,meteohub,2013-05-01 19:03:00,
2013-05-01 14:08:00,82.2,52.5,29.36,South,172,9.0,13.0,36,0.00,,,0.00,meteohub,2013-05-01 19:08:00,
2013-05-01 14:13:00,82.9,53.2,29.36,SW,215,9.0,14.0,36,0.00,,,0.00,meteohub,2013-05-01 19:13:00,
2013-05-01 14:18:00,83.5,52.2,29.36,SE,136,3.0,14.0,34,0.00,,,0.00,meteohub,2013-05-01 19:18:00,
2013-05-01 14:23:00,83.7,53.1,29.36,SW,228,5.0,14.0,35,0.00,,,0.00,meteohub,2013-05-01 19:23:00,
2013-05-01 14:28:00,83.7,52.3,29.36,WSW,248,7.0,13.0,34,0.00,,,0.00,meteohub,2013-05-01 19:28:00,
2013-05-01 14:33:00,83.5,51.4,29.36,SSW,213,6.0,14.0,33,0.00,,,0.00,meteohub,2013-05-01 19:33:00,
2013-05-01 14:38:00,83.1,51.8,29.36,SSW,206,7.0,14.0,34,0.00,,,0.00,meteohub,2013-05-01 19:38:00,
2013-05-01 14:43:00,83.1,53.4,29.36,South,188,5.0,13.0,36,0.00,,,0.00,meteohub,2013-05-01 19:43:00,
2013-05-01 14:48:00,83.1,52.7,29.36,SW,234,4.0,14.0,35,0.00,,,0.00,meteohub,2013-05-01 19:48:00,
2013-05-01 14:53:00,82.9,53.2,29.36,South,188,2.0,14.0,36,0.00,,,0.00,meteohub,2013-05-01 19:53:00,
2013-05-01 14:58:00,83.1,53.4,29.36,SW,217,12.0,14.0,36,0.00,,,0.00,meteohub,2013-05-01 19:58:00,
2013-05-01 15:02:00,83.3,52.9,29.36,SW,227,0.0,11.0,35,0.00,,,0.00,meteohub,2013-05-01 20:02:00,
2013-05-01 15:07:00,83.1,51.8,29.36,SSE,148,7.0,13.0,34,0.00,,,0.00,meteohub,2013-05-01 20:07:00,
2013-05-01 15:12:00,83.5,51.4,29.36,South,171,1.0,13.0,33,0.00,,,0.00,meteohub,2013-05-01 20:12:00,
2013-05-01 15:17:00,83.5,53.8,29.36,South,178,10.0,14.0,36,0.00,,,0.00,meteohub,2013-05-01 20:17:00,
2013-05-01 15:22:00,83.3,52.9,29.36,South,184,2.0,16.0,35,0.00,,,0.00,meteohub,2013-05-01 20:22:00,
2013-05-01 15:27:00,83.1,52.7,29.36,South,171,4.0,16.0,35,0.00,,,0.00,meteohub,2013-05-01 20:27:00,
2013-05-01 15:32:00,83.3,52.9,29.36,SE,141,12.0,16.0,35,0.00,,,0.00,meteohub,2013-05-01 20:32:00,
2013-05-01 15:37:00,83.5,53.8,29.36,South,169,7.0,15.0,36,0.00,,,0.00,meteohub,2013-05-01 20:37:00,
2013-05-01 15:42:00,83.7,54.7,29.35,South,176,0.0,16.0,37,0.00,,,0.00,meteohub,2013-05-01 20:42:00,
2013-05-01 15:47:00,84.0,53.4,29.35,SW,224,6.0,16.0,35,0.00,,,0.00,meteohub,2013-05-01 20:47:00,
2013-05-01 15:52:00,84.0,52.7,29.35,SSW,192,4.0,16.0,34,0.00,,,0.00,meteohub,2013-05-01 20:52:00,
2013-05-01 15:57:00,84.0,52.7,29.35,SSW,210,6.0,13.0,34,0.00,,,0.00,meteohub,2013-05-01 20:57:00,
2013-05-01 16:02:00,84.4,53.8,29.35,South,183,4.0,11.0,35,0.00,,,0.00,meteohub,2013-05-01 21:02:00,
2013-05-01 16:07:00,84.6,53.1,29.35,South,177,1.0,12.0,34,0.00,,,0.00,meteohub,2013-05-01 21:07:00,
2013-05-01 16:12:00,84.6,54.0,29.35,SSW,205,2.0,14.0,35,0.00,,,0.00,meteohub,2013-05-01 21:12:00,
2013-05-01 16:17:00,84.4,52.9,29.35,SSW,199,6.0,14.0,34,0.00,,,0.00,meteohub,2013-05-01 21:17:00,
2013-05-01 16:22:00,84.0,52.7,29.35,SW,221,10.0,18.0,34,0.00,,,0.00,meteohub,2013-05-01 21:22:00,
2013-05-01 16:28:00,83.8,54.0,29.35,SSW,209,3.0,18.0,36,0.00,,,0.00,meteohub,2013-05-01 21:28:00,
2013-05-01 16:33:00,83.8,54.0,29.35,SSW,202,2.0,16.0,36,0.00,,,0.00,meteohub,2013-05-01 21:33:00,
2013-05-01 16:38:00,83.7,54.0,29.35,SW,216,4.0,16.0,36,0.00,,,0.00,meteohub,2013-05-01 21:38:00,
2013-05-01 16:43:00,83.8,53.2,29.35,SSW,192,2.0,12.0,35,0.00,,,0.00,meteohub,2013-05-01 21:43:00,
2013-05-01 16:48:00,84.2,53.6,29.34,South,174,4.0,12.0,35,0.00,,,0.00,meteohub,2013-05-01 21:48:00,
2013-05-01 16:53:00,84.4,54.5,29.34,South,180,1.0,12.0,36,0.00,,,0.00,meteohub,2013-05-01 21:53:00,
2013-05-01 16:58:00,84.0,53.4,29.35,South,186,5.0,11.0,35,0.00,,,0.00,meteohub,2013-05-01 21:58:00,
2013-05-01 17:03:00,84.0,54.1,29.35,SSW,196,6.0,12.0,36,0.00,,,0.00,meteohub,2013-05-01 22:03:00,
2013-05-01 17:08:00,84.0,53.4,29.34,SSE,159,4.0,12.0,35,0.00,,,0.00,meteohub,2013-05-01 22:08:00,
2013-05-01 17:13:00,83.8,53.2,29.34,South,178,2.0,13.0,35,0.00,,,0.00,meteohub,2013-05-01 22:13:00,
2013-05-01 17:18:00,83.8,54.0,29.34,ESE,113,1.0,13.0,36,0.00,,,0.00,meteohub,2013-05-01 22:18:00,
2013-05-01 17:23:00,83.5,53.8,29.34,SSE,168,2.0,13.0,36,0.00,,,0.00,meteohub,2013-05-01 22:23:00,
2013-05-01 17:28:00,82.9,54.0,29.34,South,175,3.0,10.0,37,0.00,,,0.00,meteohub,2013-05-01 22:28:00,
2013-05-01 17:33:00,82.8,53.8,29.34,SSE,159,0.0,10.0,37,0.00,,,0.00,meteohub,2013-05-01 22:33:00,
2013-05-01 17:38:00,82.9,54.0,29.34,South,188,5.0,12.0,37,0.00,,,0.00,meteohub,2013-05-01 22:38:00,
2013-05-01 17:43:00,82.9,54.0,29.34,SSW,195,3.0,12.0,37,0.00,,,0.00,meteohub,2013-05-01 22:43:00,
2013-05-01 17:48:00,83.1,53.4,29.34,SE,128,7.0,12.0,36,0.00,,,0.00,meteohub,2013-05-01 22:48:00,
2013-05-01 17:53:00,83.1,53.4,29.34,SSE,162,2.0,12.0,36,0.00,,,0.00,meteohub,2013-05-01 22:53:00,
2013-05-01 17:58:00,83.1,54.1,29.34,SSW,206,3.0,12.0,37,0.00,,,0.00,meteohub,2013-05-01 22:58:00,
2013-05-01 18:03:00,83.1,54.1,29.34,South,180,5.0,12.0,37,0.00,,,0.00,meteohub,2013-05-01 23:03:00,
2013-05-01 18:08:00,82.9,54.0,29.33,SSE,163,5.0,13.0,37,0.00,,,0.00,meteohub,2013-05-01 23:08:00,
2013-05-01 18:13:00,82.9,53.2,29.33,SE,132,5.0,13.0,36,0.00,,,0.00,meteohub,2013-05-01 23:13:00,
2013-05-01 18:18:00,82.9,54.0,29.33,SE,132,5.0,13.0,37,0.00,,,0.00,meteohub,2013-05-01 23:18:00,
2013-05-01 18:23:00,82.9,54.7,29.34,East,98,2.0,9.0,38,0.00,,,0.00,meteohub,2013-05-01 23:23:00,
2013-05-01 18:28:00,82.6,54.3,29.34,East,92,2.0,9.0,38,0.00,,,0.00,meteohub,2013-05-01 23:28:00,
2013-05-01 18:34:00,82.4,55.0,29.33,ESE,113,5.0,7.0,39,0.00,,,0.00,meteohub,2013-05-01 23:34:00,
2013-05-01 18:39:00,82.0,54.7,29.34,SE,125,2.0,8.0,39,0.00,,,0.00,meteohub,2013-05-01 23:39:00,
2013-05-01 18:44:00,82.0,54.7,29.34,SE,136,0.0,8.0,39,0.00,,,0.00,meteohub,2013-05-01 23:44:00,
2013-05-01 18:49:00,81.9,54.5,29.34,SE,134,3.0,8.0,39,0.00,,,0.00,meteohub,2013-05-01 23:49:00,
2013-05-01 18:54:00,81.9,54.5,29.34,SE,131,6.0,7.0,39,0.00,,,0.00,meteohub,2013-05-01 23:54:00,
2013-05-01 18:59:00,81.7,55.0,29.34,SSE,162,0.0,6.0,40,0.00,,,0.00,meteohub,2013-05-01 23:59:00,
2013-05-01 19:04:00,81.5,54.9,29.34,SE,139,9.0,9.0,40,0.00,,,0.00,meteohub,2013-05-02 00:04:00,
2013-05-01 19:09:00,81.1,54.5,29.34,ESE,123,1.0,12.0,40,0.00,,,0.00,meteohub,2013-05-02 00:09:00,
2013-05-01 19:14:00,81.0,55.0,29.34,SE,130,1.0,12.0,41,0.00,,,0.00,meteohub,2013-05-02 00:14:00,
2013-05-01 19:19:00,80.6,54.7,29.34,SE,144,0.0,12.0,41,0.00,,,0.00,meteohub,2013-05-02 00:19:00,
2013-05-01 19:24:00,80.2,55.0,29.34,SE,144,1.0,11.0,42,0.00,,,0.00,meteohub,2013-05-02 00:24:00,
2013-05-01 19:29:00,79.9,55.4,29.34,SE,138,2.0,11.0,43,0.00,,,0.00,meteohub,2013-05-02 00:29:00,
2013-05-01 19:34:00,79.5,55.0,29.34,SE,138,4.0,11.0,43,0.00,,,0.00,meteohub,2013-05-02 00:34:00,
2013-05-01 19:39:00,79.2,55.4,29.34,SE,142,1.0,13.0,44,0.00,,,0.00,meteohub,2013-05-02 00:39:00,
2013-05-01 19:44:00,79.0,55.2,29.34,SE,135,1.0,13.0,44,0.00,,,0.00,meteohub,2013-05-02 00:44:00,
2013-05-01 19:49:00,78.4,55.4,29.35,SE,138,0.0,13.0,45,0.00,,,0.00,meteohub,2013-05-02 00:49:00,
2013-05-01 19:54:00,78.3,55.2,29.35,SE,134,4.0,6.0,45,0.00,,,0.00,meteohub,2013-05-02 00:54:00,
2013-05-01 19:59:00,78.1,55.6,29.35,SSE,149,0.0,6.0,46,0.00,,,0.00,meteohub,2013-05-02 00:59:00,
2013-05-01 20:04:00,77.7,55.2,29.35,SE,144,0.0,6.0,46,0.00,,,0.00,meteohub,2013-05-02 01:04:00,
2013-05-01 20:09:00,77.5,55.0,29.36,SSE,152,2.0,6.0,46,0.00,,,0.00,meteohub,2013-05-02 01:09:00,
2013-05-01 20:14:00,77.4,55.0,29.36,SSE,149,0.0,6.0,46,0.00,,,0.00,meteohub,2013-05-02 01:14:00,
2013-05-01 20:19:00,77.2,55.4,29.37,SSE,149,0.0,6.0,47,0.00,,,0.00,meteohub,2013-05-02 01:19:00,
2013-05-01 20:24:00,77.0,55.2,29.36,SSE,149,0.0,6.0,47,0.00,,,0.00,meteohub,2013-05-02 01:24:00,
2013-05-01 20:29:00,76.8,55.0,29.36,SSE,149,0.0,5.0,47,0.00,,,0.00,meteohub,2013-05-02 01:29:00,
2013-05-01 20:34:00,76.6,55.4,29.36,SSE,149,0.0,5.0,48,0.00,,,0.00,meteohub,2013-05-02 01:34:00,
2013-05-01 20:39:00,76.5,55.4,29.36,SSE,149,0.0,5.0,48,0.00,,,0.00,meteohub,2013-05-02 01:39:00,
2013-05-01 20:44:00,76.3,55.8,29.37,SSE,149,0.0,4.0,49,0.00,,,0.00,meteohub,2013-05-02 01:44:00,
2013-05-01 20:49:00,76.1,55.6,29.37,SSE,149,0.0,3.0,49,0.00,,,0.00,meteohub,2013-05-02 01:49:00,
2013-05-01 20:54:00,75.9,55.9,29.37,SSE,149,0.0,4.0,50,0.00,,,0.00,meteohub,2013-05-02 01:54:00,
2013-05-01 20:59:00,75.7,55.8,29.38,SSE,149,0.0,4.0,50,0.00,,,0.00,meteohub,2013-05-02 01:59:00,
2013-05-01 21:04:00,75.7,56.3,29.37,SSE,149,0.0,4.0,51,0.00,,,0.00,meteohub,2013-05-02 02:04:00,
2013-05-01 21:09:00,75.6,56.1,29.37,SE,144,1.0,1.0,51,0.00,,,0.00,meteohub,2013-05-02 02:09:00,
2013-05-01 21:14:00,75.4,55.9,29.38,SSE,152,1.0,6.0,51,0.00,,,0.00,meteohub,2013-05-02 02:14:00,
2013-05-01 21:19:00,75.0,56.1,29.38,SSE,150,0.0,6.0,52,0.00,,,0.00,meteohub,2013-05-02 02:19:00,
2013-05-01 21:24:00,74.8,56.1,29.38,SSE,151,0.0,6.0,52,0.00,,,0.00,meteohub,2013-05-02 02:24:00,
2013-05-01 21:29:00,74.8,56.5,29.38,SSE,151,3.0,5.0,53,0.00,,,0.00,meteohub,2013-05-02 02:29:00,
2013-05-01 21:34:00,74.7,56.5,29.38,SSE,149,0.0,5.0,53,0.00,,,0.00,meteohub,2013-05-02 02:34:00,
2013-05-01 21:39:00,74.7,56.5,29.38,SSE,148,0.0,5.0,53,0.00,,,0.00,meteohub,2013-05-02 02:39:00,
2013-05-01 21:44:00,74.5,56.3,29.39,SSE,148,0.0,3.0,53,0.00,,,0.00,meteohub,2013-05-02 02:44:00,
2013-05-01 21:50:00,74.3,56.7,29.39,SE,131,0.0,4.0,54,0.00,,,0.00,meteohub,2013-05-02 02:50:00,
2013-05-01 21:55:00,74.1,56.5,29.39,SE,131,0.0,5.0,54,0.00,,,0.00,meteohub,2013-05-02 02:55:00,
2013-05-01 22:00:00,73.9,56.3,29.39,SE,131,0.0,5.0,54,0.00,,,0.00,meteohub,2013-05-02 03:00:00,
2013-05-01 22:05:00,73.9,56.8,29.39,SE,131,0.0,5.0,55,0.00,,,0.00,meteohub,2013-05-02 03:05:00,
2013-05-01 22:10:00,73.6,56.8,29.40,North,9,5.0,6.0,56,0.00,,,0.00,meteohub,2013-05-02 03:10:00,
2013-05-01 22:15:00,72.1,53.6,29.41,North,5,13.0,18.0,52,0.00,,,0.00,meteohub,2013-05-02 03:15:00,
2013-05-01 22:20:00,69.1,51.8,29.41,North,351,7.0,18.0,54,0.00,,,0.00,meteohub,2013-05-02 03:20:00,
2013-05-01 22:25:00,66.6,50.4,29.42,North,5,14.0,21.0,56,0.00,,,0.00,meteohub,2013-05-02 03:25:00,
2013-05-01 22:30:00,65.1,50.4,29.42,NNE,15,4.0,21.0,59,0.00,,,0.00,meteohub,2013-05-02 03:30:00,
2013-05-01 22:35:00,64.2,50.5,29.42,NNE,30,7.0,21.0,61,0.00,,,0.00,meteohub,2013-05-02 03:35:00,
2013-05-01 22:40:00,63.3,50.0,29.42,NNE,17,10.0,18.0,62,0.00,,,0.00,meteohub,2013-05-02 03:40:00,
2013-05-01 22:45:00,63.0,49.8,29.42,NNE,13,9.0,18.0,62,0.00,,,0.00,meteohub,2013-05-02 03:45:00,
2013-05-01 22:50:00,62.4,49.6,29.42,North,355,10.0,18.0,63,0.00,,,0.00,meteohub,2013-05-02 03:50:00,
2013-05-01 22:55:00,62.2,50.0,29.42,North,5,10.0,15.0,64,0.00,,,0.00,meteohub,2013-05-02 03:55:00,
2013-05-01 23:00:00,62.1,50.2,29.42,North,0,11.0,16.0,65,0.00,,,0.00,meteohub,2013-05-02 04:00:00,
2013-05-01 23:01:00,62.1,50.2,29.42,North,355,9.0,16.0,65,0.00,,,0.00,meteohub,2013-05-02 04:01:00,
2013-05-01 23:06:00,61.9,50.0,29.42,NNE,31,5.0,16.0,65,0.00,,,0.00,meteohub,2013-05-02 04:06:00,
2013-05-01 23:11:00,61.7,49.5,29.42,North,5,8.0,16.0,64,0.00,,,0.00,meteohub,2013-05-02 04:11:00,
2013-05-01 23:16:00,61.3,49.5,29.42,NNE,13,6.0,17.0,65,0.00,,,0.00,meteohub,2013-05-02 04:16:00,
2013-05-01 23:21:00,61.2,49.3,29.42,North,5,6.0,17.0,65,0.00,,,0.00,meteohub,2013-05-02 04:21:00,
2013-05-01 23:26:00,61.0,49.1,29.42,North,355,12.0,17.0,65,0.00,,,0.00,meteohub,2013-05-02 04:26:00,
2013-05-01 23:31:00,60.6,49.3,29.43,NNE,12,9.0,17.0,66,0.00,,,0.00,meteohub,2013-05-02 04:31:00,
2013-05-01 23:36:00,60.3,48.9,29.43,NNE,21,5.0,17.0,66,0.00,,,0.00,meteohub,2013-05-02 04:36:00,
2013-05-01 23:41:00,59.9,48.6,29.43,NNE,19,7.0,19.0,66,0.00,,,0.00,meteohub,2013-05-02 04:41:00,
2013-05-01 23:46:00,59.7,48.7,29.43,NNE,24,11.0,19.0,67,0.00,,,0.00,meteohub,2013-05-02 04:46:00,
2013-05-01 23:51:00,59.5,48.6,29.43,NE,36,6.0,19.0,67,0.00,,,0.00,meteohub,2013-05-02 04:51:00,
2013-05-01 23:56:00,59.5,48.9,29.43,NNW,341,7.0,15.0,68,0.00,,,0.00,meteohub,2013-05-02 04:56:00,